User: anonymous
Location: Unspecified
(0.0000°N, 0.0000°E)
Time: 04:18:06
(UTC+02:00)
Language:

Cosmos 407 Rocket - Orbit

View from above orbital plane
View from above orbital plane
View from above satellite
View from above satellite

Ground track
Ground track

The orbit data is extracted from the following two-line orbital elements,

1 05175U 71035B   14265.42359087  .00000194  00000-0  73336-4 0  5154
2 05175 074.0480 246.5510 0030865 340.7774 019.2213 14.37505781271414
Epoch (UTC): 22 September 2014 10:09:58
Eccentricity: 0.0030865
inclination: 74.0480°
perigee height: 745 km
apogee height: 789 km
right ascension of ascending node: 246.5510°
argument of perigee: 340.7774°
revolutions per day: 14.37505781
mean anomaly at epoch: 19.2213°
orbit number at epoch: 27141

The dashed part of the orbit path shows where the satellite is in the earth's shadow,  

DLR